Starlink 30451

operational
NORAD ID: 57905 Int'l Des: 2023-146 Owner: SPXS Country: US Constellation: starlink
LEOCIRCULAR

About Starlink 30451

Description loading...

Live Position

Loading 3D Globe...

Upcoming Passes

Altitude History

Altitude vs Time

uPlot chart will show altitude changes over time

Two-Line Element Set

1 57905U 23146Q 26035.83334490 .01105760 54219-3 32864-2 0 9991
2 57905 42.9989 117.6842 0001696 309.4421 211.2819 15.91724305 5852
Epoch: Feb 4, 2026 • Age: 10 hours

Current Status

Altitude 298.1 km
Velocity 7.73 km/s
Sub-Earth Point -19.28°S, 128.34°W
Launch Date Sep 20, 2023
Age 2.3 years
Type internet

Technical Details

Classification Payload
Mass 730.00 kg
Dry Mass 700.00 kg
Total Mass 730.00 kg
Length 0.30 m
Diameter 4.10 m
Span 29.00 m
Shape Box + pan
Manufacturer SPXS
Bus Type Starlink V2M
Phase Status In Orbit
Owner/State SPXS/US

Large Constellations

Loading constellations...